YAOGAN 29 DEB, 42673

Orbit data source: Space-Track

YAOGAN 29 DEB, 42673 is space debris in SSO originally from a launch on Thu, 26 Nov 2015 UTC launched from the Taiyaun Space Center, China (TSC). Debris objects in space refer to the collection of defunct objects orbiting the Earth. Examples of debris include non-operational satellites, rocket bodies, and fragments generated from explosions, collisions, or faulty payload assembly.

Loading next visibility...
Identifier
42673, 2015-069F
Orbit
SSO
Last TLE update
9 hours ago
Origin
Manufacturer
Unknown
Mission
Spacecraft
Bus & Motor
Unknown
Mass
Unknown
Launch date (UTC)
2015-11-26 (10 years ago)
Launch vehicle
Unknown
Launch site
Taiyaun Space Center, China (TSC)
Object type
Payload
Rocket body
Debris
Shape & HBR
Unknown
Radar Cross Section
Small (<0.1 m²)

Expand to show TLE details & history

TLE from 9 hours ago
0 YAOGAN 29 DEB
1 42673U 15069F   25182.80988952  .00000835  00000-0  92207-4 0  9990
2 42673  97.9163 213.5459 0004869  88.3070 271.8705 14.90133858519783
Epoch: 2025-07-01T19:26Z
TLE epoch observation values (Epoch: 2025-07-01T19:26:14.454Z)
Latitude
-0.00003°
Longitude
1.88567°
Altitude
600.443 km
Speed
7.559 km/s
True Right ascension
14h 14m 11s
True Declination
0° 00' 00"
Sunlit
Object was in daylight at epoch
Visualization orbit readout
Latitude
-42.65363°
Longitude
174.94358°
Altitude
616.379 km
Speed
7.548 km/s
Apparent Right ascension
02h 56m 47s
Apparent Declination
-42° 36' 18"
Sunlit
Object is in daylight
Visualization observer readout
Local Sidereal Time
16:10:56
Azimuth
106.972° ESE
Elevation
-75.84°
Doppler factor
1
Orbital elements
Apogee altitude
597.941 km
Perigee altitude
591.151 km
Semi-major axis
6,972.683 km
Eccentricity
0.00049
Inclination
97.9163°
RAAN
213.5459°
Arg. of periapsis
88.307°
True anomaly
Unknown
Mean anomaly
271.8705°
Eccentric anomaly
Unknown
Mean motion
3.72772 °/min
Orbital period
96.57 mins
BSTAR
0.000092207
Loading maneuver chart data...
Loading SW <> Apogee altitude chart data...
Loading historical data...
Loading historical data...
Loading historical data...
Loading historical data...
Loading historical data...
Loading historical data...
Loading historical data...
Other satellites on launch #69 in the year 2015 (2015-11-26 UTC)

YAOGAN 29 DEB Visibility forecast

Observer location: undefined°, undefined°

Span
Click to sort rows by Start time (UTC) header in descending order
Start Az.
Max El. time (UTC)
Max El. Az.
Max El.
End time (UTC)
End Az.
6 mins2025-07-02 15:21:31.536Z349.399° N2025-07-02 15:23:31.536Z296.543° NW36.437°2025-07-02 15:27:31.536Z213.616° SW
6 mins2025-07-03 02:11:31.536Z174.374° S2025-07-03 02:14:31.536Z304.548° NW43.182°2025-07-03 02:17:31.536Z342.907° N
|